Regional Weather Roundup
Issued by NWS

Home | Current Version | Previous Version | Graphics & Text | Print | Product List | Glossary On
Versions: 1 2 3 4 5 6 7 8 9 10 11 12 13 14 15 16 17 18 19 20 21 22 23 24 25 26 27 28 29 30 31 32 33 34 35 36 37 38 39 40 41 42 43 44 45 46 47 48 49 50
000
ASUS43 KDMX 251304
RWRIA

WEATHER ROUNDUP FOR IOWA
NATIONAL WEATHER SERVICE DES MOINES IA
  ISSUED BY NWS QUAD CITIES IA IL
700 AM CST SUN JAN 25 2015

NOTE: "FAIR" INDICATES FEW OR NO CLOUDS BELOW 12,000 FEET WITH NO
SIGNIFICANT WEATHER AND/OR OBSTRUCTIONS TO VISIBILITY.

* - THESE STATIONS ARE NOT NWS STATIONS...THUS NOT UNDER NWS
QUALITY CONTROL.  THEY ALSO DO NOT REPORT WEATHER SUCH
AS PRECIPITATION OR FOG.

IAZ001>003-012>014-020>022-031>034-043>046-251400-
   NORTHWEST IOWA

CITY           SKY/WX    TMP DP  RH WIND       PRES   REMARKS
CARROLL *      LGT RAIN  34  34 100 N20       29.73R WCI  22
CHEROKEE *     MIX PCPN  33  33  99 N14       29.81R WCI  24
DENNISON *     CLOUDY    34  34 100 N16G26    29.75R WCI  23
LE MARS *      CLOUDY    34  34 100 N14       29.86R WCI  24
ORANGE CITY *  CLOUDY    36  32  87 N9        29.85R WCI  29
SHELDON *      CLOUDY    34  34 100 N16       29.84R WCI  23
SIOUX CITY     CLOUDY    35  32  88 N18G24    29.85R WCI  24
SPENCER        MIX PCPN  34  30  85 N22G29    29.81R WCI  22
STORM LAKE *   LGT RAIN  34  32  93 N20G26    29.79R WCI  22
$$

IAZ055>058-069>071-079>083-090>094-251400-
   SOUTHWEST IOWA

CITY           SKY/WX    TMP DP  RH WIND       PRES   REMARKS
ATLANTIC *     CLOUDY    34  34 100 N21G26    29.70R WCI  22
AUDUBON *      FLURRIES  34  30  86 N20G25    29.72R WCI  22
CLARINDA *     CLOUDY    36  32  87 NW17G26   29.72R WCI  25
COUNCIL BLFS * CLOUDY    34  34 100 N22G30    29.74R WCI  22
CRESTON *      LGT SNOW  34  34 100 N16       29.66R WCI  23
HARLAN *       CLOUDY    34  34 100 N18G28    29.77R WCI  23
LAMONI         LGT RAIN  37  35  92 N16       29.61R WCI  28
RED OAK *      CLOUDY    36  34  93 N17G28    29.72R WCI  25
SHENANDOAH *   CLOUDY    36  34  93 NW17G30   29.74R WCI  25
$$

IAZ047>049-059>061-072>074-084-251400-
   CENTRAL IOWA

CITY           SKY/WX    TMP DP  RH WIND       PRES   REMARKS
AMES           LGT SNOW  34  31  88 N14       29.69R FOG     WCI  25
ANKENY *       LGT RAIN  36  36 100 N14       29.66R WCI  27
BOONE *        LGT SNOW  34  34 100 MISG      29.68R
CHARITON *     LGT RAIN  37  37 100 N16       29.61R WCI  28
DES MOINES     LGT RAIN  37  33  85 N12       29.66R WCI  29
GRINNELL *     DRIZZLE   34  33  96 NE15      29.64R WCI  25
KNOXVILLE *    CLOUDY    37  36  93 N13       29.60R WCI  29
MARSHALLTOWN   LGT SNOW  33  32  96 NE16      29.67R VSB 1   WCI  23
NEWTON *       LGT RAIN  36  36 100 NE15G22   29.64R WCI  26
PELLA *        CLOUDY    37  36  99 N10G16    29.63R WCI  29
PERRY *        LGT RAIN  35  35  99 N17       29.69R WCI  25
$$

IAZ004>006-015-016-023>025-035-036-251400-
   NORTH CENTRAL IOWA

CITY           SKY/WX    TMP DP  RH WIND       PRES   REMARKS
ALGONA *       LGT RAIN  34  34 100 N21       29.79R WCI  22
CLARION *      FLURRIES  34  34 100 NE21G28   29.74R WCI  22
ESTHERVILLE    CLOUDY    31  30  96 N20       29.82R WCI  19
FORT DODGE *   CLOUDY    34  30  86 N12G20    29.75R WCI  25
MASON CITY     CLOUDY    33  31  92 NE14      29.78R FOG     WCI  23
FOREST CITY *  FLURRIES  32  32 100 N16G22    29.78R WCI  21
WEBSTER CITY * LGT SNOW  34  34 100 N15G23    29.71R WCI  24
IOWA FALLS *   LGT SNOW  33  32  96 N14       29.72R WCI  23
$$

IAZ007>011-017>019-026>030-037>042-050>054-066-251400-
   NORTHEAST IOWA

CITY           SKY/WX    TMP DP  RH WIND       PRES   REMARKS
CEDAR RAPIDS   LGT SNOW  33  32  96 E18       29.66R FOG     WCI  22
CHARLES CITY * CLOUDY    34  34 100 NE15G21   29.75R WCI  24
CLINTON *      CLOUDY    32  30  93 E22G29    29.70R WCI  19
DECORAH *      LGT SNOW  28  27  93 NE14G22   29.77R WCI  17
DUBUQUE        CLOUDY    29  25  85 NE18G31   29.72R WCI  16
MONTICELLO *   LGT SNOW  32  32 100 NE16G30   29.70R WCI  21
OELWEIN *      CLOUDY    32  30  93 NE21G28   29.71R WCI  20
WATERLOO       LGT SNOW  32  32 100 NE14      29.71R FOG     WCI  22
$$

IAZ064-065-067-068-078-251400-
   EAST CENTRAL IOWA

CITY           SKY/WX    TMP DP  RH WIND       PRES   REMARKS
DAVENPORT      LGT SNOW  33  30  88 E20       29.66R FOG     WCI  21
IOWA CITY      LGT SNOW  33  32  96 NE15      29.67R FOG     WCI  23
MT. PLEASANT * LGT RAIN  36  36 100 NE12      29.60R WCI  28
MUSCATINE *    LGT RAIN  36  34  93 NE17G25   29.64R WCI  25
QUAD CITIES    LGT SNOW  33  31  92 NE20      29.65R FOG     WCI  21
$$

IAZ062-063-075>077-085>089-095>099-251400-
   SOUTHEAST IOWA

CITY           SKY/WX    TMP DP  RH WIND       PRES   REMARKS
BURLINGTON     LGT RAIN  39  38  96 NE10      29.59R FOG     WCI  32
FAIRFIELD *    LGT RAIN  37  37 100 NE12      29.60R WCI  30
FORT MADISON * RAIN      39  39 100 N3        29.60R
KEOKUK *       LGT RAIN  39  37  93 CALM      29.58R
OTTUMWA        CLOUDY    39  39 100 N9        29.59R WCI  33
WASHINGTON *   CLOUDY    36  36 100 NE15      29.62R FOG     WCI  26
$$

ABBREVIATIONS USED IN REMARKS
   TC - TEMPERATURES IN CELSIUS
  WCI - WIND CHILL INDEX
   HX - HEAT INDEX
  VSB - VISIBILITY
$$


USA.gov is the U.S. government's official web portal to all federal, state and local government web resources and services.